This demonstration page uses our WeatherBlox Daily Observations layout. Learn more.

Left ArrowRight Arrow

39.92423, -83.80882

Hourly Observations for November 5, 2020

Temp ( °F °C ) Dew Point ( °F °C ) Humidity (%) Winds ( mph kmh ) Pressure ( in mb ) Visibility ( mi km ) Precip ( " mm )
12:56 am 00:56 Clear 54 12.2 41 5 62 62 SW 9 15 30.28 1025 10 16 N/A
1:56 am 01:56 Clear 52 11.1 41 5 66 66 SW 8 13 30.28 1025 10 16 N/A
2:56 am 02:56 Clear 51 10.6 40 4.4 66 66 SSW 7 11 30.28 1026 10 16 N/A
3:56 am 03:56 Clear 49 9.4 40 4.4 71 71 SW 8 13 30.29 1026 10 16 N/A
4:56 am 04:56 Clear 49 9.4 40 4.4 71 71 SW 7 11 30.30 1026 10 16 N/A
5:56 am 05:56 Clear 49 9.4 41 5 74 74 SW 8 13 30.31 1026 10 16 N/A
6:56 am 06:56 Clear 49 9.4 41 5 74 74 SSW 8 13 30.30 1026 10 16 N/A
7:56 am 07:56 Sunny 50 10 41 5 71 71 SW 8 13 30.32 1027 10 16 N/A
8:56 am 08:56 Sunny 55 12.8 42 5.6 62 62 SW 10 17 30.32 1027 10 16 N/A
9:56 am 09:56 Sunny 59 15 44 6.7 58 58 SW 13 20 30.31 1027 10 16 N/A
10:56 am 10:56 Sunny 63 17.2 44 6.7 50 50 SW 10 17 30.30 1026 10 16 0.01 0.25
11:56 am 11:56 Sunny 65 18.3 44 6.7 47 47 SW 13 20 30.29 1026 10 16 N/A
12:56 pm 12:56 Sunny 65 18.3 44 6.7 47 47 SW 13 20 30.28 1025 10 16 N/A
1:56 pm 13:56 Sunny 66 18.9 44 6.7 45 45 SW 12 19 30.27 1025 10 16 N/A
2:56 pm 14:56 Sunny 66 18.9 43 6.1 43 43 SW 12 19 30.26 1025 10 16 N/A
3:56 pm 15:56 Sunny 64 17.8 43 6.1 46 46 SSW 10 17 30.26 1025 10 16 N/A
4:56 pm 16:56 Sunny 62 16.7 43 6.1 50 50 SSW 8 13 30.26 1025 10 16 N/A
5:56 pm 17:56 Clear 60 15.6 44 6.7 56 56 S 7 11 30.27 1025 10 16 N/A
6:56 pm 18:56 Clear 59 15 45 7.2 60 60 SSW 6 9 30.28 1025 10 16 N/A
7:56 pm 19:56 Clear 58 14.4 45 7.2 62 62 SSW 6 9 30.27 1025 10 16 N/A
8:56 pm 20:56 Clear 56 13.3 45 7.2 67 67 SSW 6 9 30.28 1025 10 16 N/A
9:56 pm 21:56 Clear 56 13.3 45 7.2 67 67 SW 6 9 30.28 1026 10 16 N/A
10:56 pm 22:56 Clear 52 11.1 44 6.7 75 75 SW 6 9 30.28 1026 10 16 N/A
11:56 pm 23:56 Clear 50 10 44 6.7 80 80 SSW 6 9 30.28 1026 10 16 N/A

Powered by AerisWeather